Location: Bothwell
(41.7170°N, 112.2589°W)
Time: 10:01:55
(UTC+00:00)

Explorer 7 - All Passes

Search period start: 15 May 2026 00:00
Search period end: 25 May 2026 00:00
Orbit: 427 x 536 km, 50.2° (Epoch: 14 May)

Date Brightness Start Highest point End Pass type
(mag) Time Alt. Az. Time Alt. Az. Time Alt. Az.
15 May - 11:03:31 10° S 11:05:44 16° SE 11:08:01 10° E visible
15 May - 12:40:03 10° WSW 12:43:37 74° NNW 12:47:19 10° NE daylight
15 May - 14:19:16 10° WNW 14:22:22 25° N 14:25:34 10° NE daylight
15 May - 15:58:23 10° NW 16:01:32 24° N 16:04:45 10° ENE daylight
15 May - 17:36:33 10° NW 17:40:23 60° NNE 17:44:20 10° ESE daylight
15 May - 19:15:14 10° W 19:18:30 25° SW 19:21:48 10° S daylight
16 May - 10:36:05 10° SSE 10:38:04 14° SE 10:40:05 10° E visible
16 May - 12:12:21 10° WSW 12:15:53 80° NNW 12:19:34 10° ENE daylight
16 May - 13:51:31 10° WNW 13:54:36 25° NNW 13:57:48 10° NE daylight
16 May - 15:30:40 10° NW 15:33:45 23° N 15:36:56 10° ENE daylight
16 May - 17:08:50 10° NW 17:12:38 56° NNE 17:16:32 10° ESE daylight
16 May - 18:47:27 10° WNW 18:50:46 27° SW 18:54:10 10° SSE daylight
17 May - 10:08:40 10° SSE 10:10:23 13° SE 10:12:06 10° ESE visible
17 May - 11:44:38 10° WSW 11:48:09 86° NNW 11:51:49 10° ENE daylight
17 May - 13:23:44 10° WNW 13:26:50 26° NNW 13:30:02 10° NE daylight
17 May - 15:02:56 10° NW 15:05:58 23° N 15:09:06 10° ENE daylight
17 May - 16:41:07 10° NW 16:44:51 53° NNE 16:48:44 10° ESE daylight
17 May - 18:19:39 10° WNW 18:23:02 29° SW 18:26:30 10° SSE daylight
18 May - 09:41:21 10° SSE 09:42:41 12° SE 09:44:01 10° ESE visible
18 May - 11:16:55 10° SW 11:20:25 87° SSE 11:24:02 10° ENE visible
18 May - 12:55:58 10° WNW 12:59:04 26° NNW 13:02:15 10° NE daylight
18 May - 14:35:12 10° NW 14:38:11 22° N 14:41:15 10° ENE daylight
18 May - 16:13:24 10° NW 16:17:06 49° NNE 16:20:55 10° ESE daylight
18 May - 17:51:51 10° WNW 17:55:18 31° SW 17:58:50 10° SSE daylight
19 May - 09:14:12 10° SE 09:14:58 11° SE 09:15:46 10° ESE visible
19 May - 10:49:12 10° SW 10:52:40 80° SE 10:56:17 10° ENE visible
19 May - 12:28:10 10° WNW 12:31:16 27° NNW 12:34:28 10° NE daylight
19 May - 14:07:27 10° NW 14:10:23 22° N 14:13:24 10° ENE daylight
19 May - 15:45:40 10° NW 15:49:19 46° NNE 15:53:05 10° E daylight
19 May - 17:24:04 10° WNW 17:27:34 33° SW 17:31:08 10° SSE daylight
20 May - 10:21:28 10° SW 10:24:55 74° SE 10:28:29 10° ENE visible
20 May - 12:00:22 10° WNW 12:03:28 28° NNW 12:06:41 10° NE daylight
20 May - 13:39:41 10° NW 13:42:34 22° N 13:45:32 10° ENE daylight
20 May - 15:17:56 10° NW 15:21:31 43° NNE 15:25:14 10° E daylight
20 May - 16:56:16 10° WNW 16:59:48 36° SW 17:03:26 10° SSE daylight
21 May - 09:53:45 10° SW 09:57:10 67° SE 10:00:41 10° ENE visible
21 May - 11:32:34 10° WNW 11:35:41 29° NNW 11:38:53 10° NE visible
21 May - 13:11:55 10° NW 13:14:45 21° N 13:17:42 10° NE daylight
21 May - 14:50:11 10° NW 14:53:43 41° NNE 14:57:23 10° E daylight
21 May - 16:28:28 10° WNW 16:32:02 39° SW 16:35:42 10° SSE daylight
22 May - 09:26:00 10° SW 09:29:24 61° SE 09:32:53 10° ENE visible
22 May - 11:04:45 10° W 11:07:52 29° NNW 11:11:05 10° NE visible
22 May - 12:44:08 10° NW 12:46:56 21° N 12:49:49 10° NE daylight
22 May - 14:22:26 10° NW 14:25:55 39° NNE 14:29:31 10° E daylight
22 May - 16:00:41 10° WNW 16:04:15 42° SW 16:07:56 10° SSE daylight
23 May - 08:58:16 10° SW 09:01:38 55° SE 09:05:04 10° ENE visible
23 May - 10:36:55 10° W 10:40:03 31° NNW 10:43:17 10° NE visible
23 May - 12:16:20 10° NW 12:19:06 21° N 12:21:57 10° NE daylight
23 May - 13:54:40 10° NW 13:58:06 36° NNE 14:01:38 10° E daylight
23 May - 15:32:52 10° WNW 15:36:27 46° SW 15:40:10 10° SE daylight
24 May - 08:30:32 10° SW 08:33:51 50° SE 08:37:14 10° ENE visible
24 May - 10:09:05 10° W 10:12:14 32° NNW 10:15:28 10° NE visible
24 May - 11:48:32 10° NW 11:51:16 20° N 11:54:04 10° NE daylight
24 May - 13:26:54 10° NW 13:30:16 35° NNE 13:33:45 10° E daylight
24 May - 15:05:04 10° WNW 15:08:40 50° SW 15:12:23 10° SE daylight
